Location: Waco, TX
(31.5480°N, 97.1670°W)
Time: 20:26:43
(UTC-05:00)

ISS - Pass Details

Date: 17 August 2018
Orbit: 402 x 409 km, 51.6° (Epoch: 15 August)

Event Time Altitude Azimuth Distance (km) Brightness Sun altitude
Rises 09:50:55 0° 205° (SSW) 2,298 -0.2 36.2°
Reaches altitude 10° 09:53:07 10° 194° (SSW) 1,443 -1.0 36.7°
Maximum altitude 09:56:01 31° 130° (SE) 727 -1.2 37.3°
Drops below altitude 10° 09:58:57 10° 66° (ENE) 1,449 -0.1 37.9°
Sets 10:01:09 0° 55° (NE) 2,310 0.6 38.4°
